• In Czech Republic
  • List of Countries
  • For 7 days
  • Water Temperature
  • Satellite Maps
  • Weather Map
  • Weather Widgets
  • user-avatar
    Login

    Hourly Weather Troickiy Posad

    Today, 19 April, Thursday

    Time Temperature Precipitation Wind Pressure Humidity
    00:00 +5°C° 0.1 mm 3 mps 744 mmHg 93%
    01:00 +5°C° 0.1 mm 3 mps 744 mmHg 93%
    02:00 +5°C° 0.1 mm 3 mps 743 mmHg 94%
    03:00 +6°C° 0 mm 2 mps 742 mmHg 95%
    04:00 +5°C° 0.5 mm 3 mps 742 mmHg 95%
    05:00 +5°C° 0.5 mm 3 mps 741 mmHg 95%
    06:00 +5°C° 0.5 mm 4 mps 741 mmHg 95%
    07:00 +5°C° 0.7 mm 4 mps 741 mmHg 94%
    08:00 +5°C° 0.7 mm 4 mps 741 mmHg 93%
    09:00 +5°C° 0 mm 4 mps 740 mmHg 92%
    10:00 +5°C° 0.3 mm 4 mps 740 mmHg 91%
    11:00 +6°C° 0.3 mm 4 mps 740 mmHg 91%
    12:00 +6°C° 0.3 mm 4 mps 740 mmHg 90%
    13:00 +6°C° 0.1 mm 4 mps 740 mmHg 90%
    14:00 +7°C° 0.1 mm 3 mps 740 mmHg 89%
    15:00 +8°C° 0.1 mm 3 mps 740 mmHg 89%
    16:00 +7°C° 0.2 mm 3 mps 740 mmHg 90%
    17:00 +7°C° 0.2 mm 3 mps 740 mmHg 92%
    18:00 +5°C° 0.2 mm 3 mps 740 mmHg 93%
    19:00 +5°C° 0.3 mm 3 mps 740 mmHg 93%
    20:00 +5°C° 0.3 mm 3 mps 740 mmHg 94%
    21:00 +5°C° 0.3 mm 3 mps 740 mmHg 95%
    22:00 +4°C° 0.5 mm 3 mps 740 mmHg 94%
    23:00 +4°C° 0.5 mm 4 mps 741 mmHg 94%

    Tomorrow, 20 April, Friday

    Time Temperature Precipitation Wind Pressure Humidity
    00:00 +4°C° 0.5 mm 4 mps 741 mmHg 93%
    01:00 +4°C° 0.4 mm 4 mps 741 mmHg 92%
    02:00 +3°C° 0.4 mm 5 mps 741 mmHg 91%
    03:00 +3°C° 0.4 mm 5 mps 741 mmHg 90%
    04:00 +3°C° 0.1 mm 5 mps 742 mmHg 88%
    05:00 +2°C° 0.1 mm 6 mps 742 mmHg 86%
    06:00 +2°C° 0.1 mm 6 mps 743 mmHg 85%
    07:00 +3°C° 0 mm 6 mps 743 mmHg 80%
    08:00 +3°C° 0 mm 6 mps 744 mmHg 75%
    09:00 +3°C° 0 mm 6 mps 744 mmHg 71%
    10:00 +3°C° 0 mm 6 mps 745 mmHg 68%
    11:00 +3°C° 0 mm 6 mps 745 mmHg 65%
    12:00 +3°C° 0 mm 6 mps 746 mmHg 62%
    13:00 +3°C° 0 mm 6 mps 746 mmHg 58%
    14:00 +3°C° 0 mm 5 mps 746 mmHg 53%
    15:00 +5°C° 0 mm 5 mps 746 mmHg 49%
    16:00 +3°C° 0 mm 5 mps 747 mmHg 50%
    17:00 +3°C° 0 mm 4 mps 747 mmHg 51%
    18:00 +3°C° 0 mm 4 mps 747 mmHg 51%
    19:00 +2°C° 0 mm 3 mps 747 mmHg 56%
    20:00 0°C° 0 mm 3 mps 748 mmHg 60%
    21:00 -1°C° 0 mm 2 mps 748 mmHg 64%
    22:00 -1°C° 0 mm 2 mps 748 mmHg 65%
    23:00 0°C° 0 mm 1 mps 748 mmHg 67%

    Day after tomorrow, 21 April, Saturday

    Time Temperature Precipitation Wind Pressure Humidity
    00:00 0°C° 0 mm 1 mps 748 mmHg 68%
    01:00 -1°C° 0 mm 1 mps 748 mmHg 68%
    02:00 -1°C° 0 mm 1 mps 748 mmHg 68%
    03:00 -2°C° 0 mm 0 mps 747 mmHg 68%
    04:00 0°C° 0 mm 1 mps 747 mmHg 66%
    05:00 0°C° 0 mm 1 mps 747 mmHg 63%
    06:00 -2°C° 0 mm 2 mps 746 mmHg 61%
    07:00 0°C° 0 mm 3 mps 746 mmHg 56%
    08:00 +1°C° 0 mm 3 mps 745 mmHg 52%
    09:00 +1°C° 0 mm 4 mps 744 mmHg 47%
    10:00 +1°C° 0.2 mm 5 mps 743 mmHg 49%
    11:00 +2°C° 0.2 mm 5 mps 742 mmHg 52%
    12:00 +2°C° 0.2 mm 6 mps 741 mmHg 55%
    13:00 +2°C° 0.9 mm 6 mps 740 mmHg 61%
    14:00 +2°C° 0.9 mm 6 mps 739 mmHg 67%
    15:00 +1°C° 0.9 mm 6 mps 738 mmHg 73%
    16:00 +2°C° 0.9 mm 6 mps 737 mmHg 77%
    17:00 +2°C° 0.9 mm 6 mps 736 mmHg 82%
    18:00 +2°C° 0.9 mm 6 mps 734 mmHg 86%
    19:00 +2°C° 2 mm 6 mps 733 mmHg 88%
    20:00 +3°C° 2 mm 6 mps 732 mmHg 90%
    21:00 +3°C° 2 mm 6 mps 730 mmHg 92%
    22:00 +5°C° 1.2 mm 5 mps 729 mmHg 94%
    23:00 +5°C° 1.2 mm 5 mps 728 mmHg 95%

    22 April, Sunday

    Time Temperature Precipitation Wind Pressure Humidity
    00:00 +6°C° 1.2 mm 4 mps 727 mmHg 96%
    01:00 +6°C° 1.3 mm 4 mps 727 mmHg 96%
    02:00 +6°C° 1.3 mm 4 mps 726 mmHg 97%
    03:00 +5°C° 1.3 mm 4 mps 725 mmHg 97%
    04:00 +5°C° 0.2 mm 4 mps 725 mmHg 95%
    05:00 +4°C° 0.2 mm 4 mps 725 mmHg 94%
    06:00 +3°C° 0.2 mm 4 mps 725 mmHg 93%
    07:00 +4°C° 0 mm 4 mps 725 mmHg 90%
    08:00 +4°C° 0 mm 4 mps 726 mmHg 87%
    09:00 +5°C° 0 mm 4 mps 726 mmHg 85%
    10:00 +5°C° 0.3 mm 4 mps 727 mmHg 85%
    11:00 +5°C° 0.3 mm 4 mps 727 mmHg 85%
    12:00 +5°C° 0.3 mm 4 mps 728 mmHg 85%
    13:00 +3°C° 0.4 mm 5 mps 728 mmHg 86%
    14:00 +2°C° 0.4 mm 5 mps 729 mmHg 87%
    15:00 +1°C° 0.4 mm 6 mps 730 mmHg 88%
    16:00 -1°C° 0.2 mm 6 mps 731 mmHg 87%
    17:00 -1°C° 0.2 mm 6 mps 731 mmHg 87%
    18:00 -2°C° 0.2 mm 6 mps 732 mmHg 86%
    19:00 -2°C° 0.2 mm 6 mps 733 mmHg 86%
    20:00 -3°C° 0.2 mm 6 mps 734 mmHg 86%
    21:00 -3°C° 0.2 mm 6 mps 734 mmHg 86%
    22:00 -3°C° 0.1 mm 6 mps 735 mmHg 86%
    23:00 -3°C° 0.1 mm 6 mps 735 mmHg 86%

    23 April, Monday

    Time Temperature Precipitation Wind Pressure Humidity
    00:00 -4°C° 0.1 mm 6 mps 736 mmHg 86%
    01:00 -4°C° 0.1 mm 5 mps 736 mmHg 86%
    02:00 -4°C° 0.1 mm 5 mps 737 mmHg 86%
    03:00 -5°C° 0.1 mm 5 mps 737 mmHg 86%
    04:00 -5°C° 0.1 mm 5 mps 738 mmHg 85%
    05:00 -5°C° 0.1 mm 5 mps 738 mmHg 85%
    06:00 -5°C° 0.1 mm 5 mps 739 mmHg 84%
    07:00 -5°C° 0.1 mm 5 mps 739 mmHg 82%
    08:00 -5°C° 0.1 mm 5 mps 740 mmHg 79%
    09:00 -4°C° 0.1 mm 5 mps 741 mmHg 77%
    10:00 -4°C° 0.1 mm 5 mps 741 mmHg 75%
    11:00 -2°C° 0.1 mm 5 mps 741 mmHg 74%
    12:00 -2°C° 0.1 mm 5 mps 742 mmHg 72%
    13:00 -2°C° 0.1 mm 5 mps 742 mmHg 72%
    14:00 -1°C° 0.1 mm 5 mps 743 mmHg 71%
    15:00 -1°C° 0.1 mm 5 mps 743 mmHg 71%
    16:00 -1°C° 0.1 mm 5 mps 743 mmHg 72%
    17:00 -1°C° 0.1 mm 4 mps 743 mmHg 73%
    18:00 -1°C° 0.1 mm 4 mps 744 mmHg 74%
    19:00 -2°C° 0 mm 4 mps 744 mmHg 77%
    20:00 -2°C° 0 mm 3 mps 744 mmHg 81%
    21:00 -2°C° 0 mm 3 mps 744 mmHg 84%
    22:00 -4°C° 0 mm 3 mps 744 mmHg 85%
    23:00 -4°C° 0 mm 3 mps 744 mmHg 86%

    24 April, Tuesday

    Time Temperature Precipitation Wind Pressure Humidity
    00:00 -4°C° 0 mm 3 mps 744 mmHg 87%
    01:00 -5°C° 0 mm 3 mps 745 mmHg 88%
    02:00 -5°C° 0 mm 3 mps 745 mmHg 88%
    03:00 -5°C° 0 mm 3 mps 745 mmHg 89%
    04:00 -5°C° 0 mm 3 mps 745 mmHg 87%
    05:00 -5°C° 0 mm 3 mps 745 mmHg 84%
    06:00 -5°C° 0 mm 3 mps 745 mmHg 82%
    07:00 -2°C° 0 mm 3 mps 746 mmHg 73%
    08:00 -2°C° 0 mm 4 mps 746 mmHg 63%
    09:00 0°C° 0 mm 4 mps 746 mmHg 54%
    10:00 +1°C° 0 mm 4 mps 746 mmHg 53%
    11:00 +1°C° 0 mm 4 mps 746 mmHg 52%
    12:00 +3°C° 0 mm 4 mps 746 mmHg 52%
    13:00 +3°C° 0 mm 4 mps 746 mmHg 53%
    14:00 +3°C° 0 mm 4 mps 746 mmHg 54%
    15:00 +3°C° 0 mm 4 mps 746 mmHg 55%
    16:00 +3°C° 0 mm 3 mps 746 mmHg 59%
    17:00 +2°C° 0 mm 3 mps 746 mmHg 63%
    18:00 +3°C° 0 mm 2 mps 746 mmHg 67%
    19:00 +3°C° 0 mm 1 mps 746 mmHg 71%
    20:00 +2°C° 0 mm 1 mps 747 mmHg 75%
    21:00 0°C° 0 mm 1 mps 747 mmHg 79%
    22:00 0°C° 0 mm 1 mps 747 mmHg 80%
    23:00 -1°C° 0 mm 1 mps 746 mmHg 82%
    Show more